STARLINK-35653 (66122 NORAD) Tracking and Keplerian Element Data

This shows tracking and keplerian element data for the satellite.

Feedback or suggestion? Click here.




ElementValue
Catalog66122
NameSTARLINK-35653
Epoch Orbit1039
Epoch Day354.19699497
Epoch Year2025
RAAN52.1396
Inclination53.1608
Eccentricity0.0001741
Argument of Perigee84.3813
Mean Anonmoly275.739
Mean Motion15.39639463
Decay Rate0.00029818
L11 66122U 25237J 25354.19699497 .00029818 00000+0 75203-3 0 9996
L22 66122 53.1608 52.1396 0001741 84.3813 275.7390 15.39639463 10393



Live tracking and technical data element details for STARLINK-35653 (NORAD 66122). STARLINK-35653 can be tracked NOW for your location showing map with azimuth and elevation plus other details from your city location.







IsCatalogInMostPopularTable: catalog: 66122, numindb: 3
Update: records affected: 1



GetName: 66122 STARLINK-35653

Hit Count: updated at: Sun, 08 Feb 2026 16:34:15 GMT